Location: Huesca
(42.1318°N, 0.4078°W)
Time: 00:20:19
(UTC+02:00)

ESTCUBE 1 - Visible Passes

Search period start: 25 April 2024 00:00
Search period end: 05 May 2024 00:00
Orbit: 635 x 649 km, 97.8° (Epoch: 24 April)

Date Brightness Start Highest point End Pass type
(mag) Time Alt. Az. Time Alt. Az. Time Alt. Az.
25 Apr ? 00:31:07 22° WNW 00:31:07 22° WNW 00:33:55 10° NW visible
25 Apr ? 23:17:41 58° ENE 23:17:41 58° ENE 23:22:00 10° N visible
26 Apr ? 00:55:18 13° W 00:55:18 13° W 00:56:41 10° WNW visible
26 Apr ? 22:04:23 10° ENE 22:05:42 11° ENE 22:07:02 10° NE visible
26 Apr ? 23:41:51 75° WNW 23:41:51 75° WNW 23:46:03 10° NNW visible
27 Apr ? 22:28:24 18° E 22:29:24 19° ENE 22:32:30 10° NNE visible
28 Apr ? 00:06:01 41° W 00:06:01 41° W 00:09:51 10° NNW visible
28 Apr ? 22:52:33 31° E 22:53:10 32° ENE 22:57:06 10° N visible
29 Apr ? 00:30:10 23° W 00:30:10 23° W 00:33:19 10° NW visible
29 Apr ? 23:16:42 56° E 23:17:00 57° ENE 23:21:21 10° N visible
30 Apr ? 00:54:18 13° W 00:54:18 13° W 00:56:03 10° WNW visible
30 Apr ? 22:03:45 10° ENE 22:05:01 11° ENE 22:06:17 10° NE visible
30 Apr ? 23:40:50 78° WSW 23:40:55 79° WSW 23:45:21 10° NNW visible
01 May ? 22:27:20 17° E 22:28:40 19° ENE 22:31:46 10° NNE visible
02 May ? 00:04:57 42° W 00:04:57 42° W 00:09:07 10° NNW visible
02 May ? 22:51:27 29° E 22:52:23 32° ENE 22:56:19 10° N visible
03 May ? 00:29:04 24° W 00:29:04 24° W 00:32:33 10° NW visible
03 May ? 23:15:33 51° ESE 23:16:11 56° ENE 23:20:31 10° N visible
04 May ? 00:53:10 13° W 00:53:10 13° W 00:55:17 10° WNW visible
04 May ? 22:03:00 10° ENE 22:04:10 11° ENE 22:05:22 10° NE visible
04 May ? 23:39:39 71° SSW 23:40:03 80° WSW 23:44:30 10° NNW visible
